CARTOSAT-2E

Last updated on Fri Dec 19 2025 00:02:34 GMT+0000 (Coordinated Universal Time)

1 42767U 17036C 25352.64330154 .00004849 00000+0 23326-3 0 9999 2 42767 97.4556 50.1535 0002425 210.6529 149.4564 15.19256987470738

Satellite not in orbit